Nome, AK

6:01 PM AKDT on June 28, 2017 (GMT -0800)
Nome

Weather History for PAOM - May, 2014

Change the Weather History Date:

Monday, May 12, 2014

  Actual Average Record
Temperature  
Mean Temperature 33 °F 35 °F  
Max Temperature 35 °F 41 °F 61 °F (1970)
Min Temperature 31 °F 29 °F 5 °F (1937)
Degree Days  
Heating Degree Days 32 30  
Month to date heating degree days 394 390  
Since 1 July heating degree days 11260 12700  
Cooling Degree Days 0 0  
Month to date cooling degree days 0 0  
Year to date cooling degree days 0 0  
Moisture  
Dew Point 32 °F    
Average Humidity 0    
Maximum Humidity 0    
Minimum Humidity 0    
Precipitation  
Precipitation 0.06 in 0.03 in 0.46 in (1918)
Month to date precipitation 0.48 0.34  
Year to date precipitation 3.63 3.62  
Snow  
Snow 0.60 in 0.10 in 0.70 in (1964)
Month to date snowfall 2.3 1.4  
Since 1 July snowfall 72.0 74.5  
Snow Depth T in    
Sea Level Pressure  
Sea Level Pressure 30.36 in    
Wind  
Wind Speed 8 mph (SW)    
Max Wind Speed 23 mph    
Max Gust Speed 28 mph    
Visibility 8 miles    
Events Fog , Snow    
T = Trace of Precipitation, MM = Missing Value Source: NWS Daily Summary

Daily Weather History Graph

Daily Weather History Graph

Search for Another Location

Airport or City:

Trip Planner

Search our weather history database for the weather conditions in past years. The results will help you decide how hot, cold, wet, or windy it might be!

Date:

Astronomy

May. 12, 2014 Rise Set
Actual Time 5:52 AM AKDT 12:06 AM AKDT
Civil Twilight 4:14 AM AKDT 1:48 AM AKDT
Nautical Twilight Sun does not set Sun does not set
Astronomical Twilight Sun does not set Sun does not set
Moon 9:27 PM AKDT (5/12) 5:43 AM AKDT (5/12)
Length of Visible Light 21h 33m
Length of Day
18h 14m
Waxing Gibbous, 95% of the Moon is Illuminated
May 12
Waxing Gibbous
May 14
Full
May 21
Last Quarter
May 28
New
Jun 5
First Quarter

Hourly Weather History & Observations

Time (AKDT) Temp. Windchill Dew Point Humidity Pressure Visibility Wind Dir Wind Speed Gust Speed Precip Events Conditions
12:08 AM 30.9 °F 24.3 °F 30.9 °F 100% 30.37 in 10.0 mi WNW 6.9 mph - N/A   Overcast
12:41 AM 30.9 °F 23.5 °F 30.9 °F 100% 30.38 in 10.0 mi WSW 8.1 mph - N/A   Overcast
12:53 AM 30.9 °F 22.8 °F 30.9 °F 100% 30.38 in 10.0 mi West 9.2 mph - N/A   Overcast
1:53 AM 30.9 °F 25.2 °F 30.9 °F 100% 30.39 in 10.0 mi West 5.8 mph - N/A   Overcast
2:53 AM 30.9 °F 25.2 °F 30.9 °F 100% 30.39 in 10.0 mi West 5.8 mph - N/A   Overcast
3:53 AM 30.9 °F - 30.9 °F 100% 30.39 in 10.0 mi Calm Calm - N/A   Overcast
4:27 AM 32.0 °F - 32.0 °F 100% 30.38 in 10.0 mi Calm Calm - N/A   Overcast
4:49 AM 30.2 °F - 30.2 °F 100% 30.38 in 10.0 mi Calm Calm - N/A   Overcast
4:53 AM 30.9 °F - 30.9 °F 100% 30.39 in 10.0 mi Calm Calm - N/A   Overcast
6:53 AM 32.0 °F - 32.0 °F 100% 30.39 in 10.0 mi Calm Calm - N/A   Overcast
7:53 AM 32.0 °F - 32.0 °F 100% 30.39 in 10.0 mi Calm Calm - N/A   Overcast
8:53 AM 32.0 °F - 32.0 °F 100% 30.39 in 10.0 mi Calm Calm - N/A   Overcast
9:53 AM 33.1 °F 30.0 °F 30.9 °F 92% 30.38 in 10.0 mi SW 3.5 mph - N/A   Overcast
10:53 AM 34.0 °F 28.0 °F 30.9 °F 89% 30.38 in 10.0 mi SSW 6.9 mph - N/A   Overcast
11:53 AM 34.0 °F 27.2 °F 32.0 °F 92% 30.37 in 10.0 mi SSW 8.1 mph - N/A   Overcast
12:53 PM 34.0 °F 26.6 °F 32.0 °F 92% 30.38 in 10.0 mi South 9.2 mph - N/A   Overcast
1:53 PM 34.0 °F 26.0 °F 32.0 °F 92% 30.37 in 10.0 mi South 10.4 mph - N/A   Overcast
2:42 PM 34.0 °F 25.5 °F 32.0 °F 92% 30.37 in 9.0 mi SSW 11.5 mph - N/A   Overcast
2:53 PM 34.0 °F 25.5 °F 32.0 °F 92% 30.36 in 9.0 mi SSW 11.5 mph - N/A   Overcast
3:53 PM 34.0 °F 25.0 °F 33.1 °F 96% 30.36 in 9.0 mi SSW 12.7 mph - 0.00 in   Overcast
4:40 PM 34.0 °F 25.5 °F 33.1 °F 96% 30.35 in 10.0 mi SSW 11.5 mph - N/A   Overcast
4:53 PM 34.0 °F 26.0 °F 33.1 °F 96% 30.35 in 10.0 mi SSW 10.4 mph - N/A   Overcast
5:44 PM 34.0 °F 25.5 °F 33.1 °F 96% 30.34 in 10.0 mi SSW 11.5 mph - N/A   Overcast
5:53 PM 34.0 °F 25.5 °F 33.1 °F 96% 30.34 in 10.0 mi SW 11.5 mph - N/A   Overcast
6:13 PM 34.0 °F 24.6 °F 33.1 °F 96% 30.34 in 10.0 mi SW 13.8 mph - N/A   Overcast
6:53 PM 34.0 °F 24.6 °F 33.1 °F 96% 30.33 in 10.0 mi SW 13.8 mph - N/A   Overcast
7:23 PM 33.1 °F 23.9 °F 33.1 °F 100% 30.32 in 8.0 mi SW 12.7 mph - N/A   Overcast
7:53 PM 33.1 °F 23.4 °F 33.1 °F 100% 30.32 in 5.0 mi SW 13.8 mph - N/A   Overcast
8:53 PM 33.1 °F 24.9 °F 33.1 °F 100% 30.33 in 4.0 mi WSW 10.4 mph - N/A   Overcast
9:17 PM 33.1 °F 24.9 °F 32.0 °F 96% 30.32 in 2.0 mi WSW 10.4 mph - 0.00 in Snow Light Snow
9:42 PM 33.1 °F 24.4 °F 32.0 °F 96% 30.33 in 1.2 mi WSW 11.5 mph - 0.00 in Snow Light Snow
9:53 PM 33.8 °F 24.8 °F 32.0 °F 93% 30.31 in 1.5 mi WSW 12.7 mph - N/A Snow Light Snow
10:12 PM 32.0 °F 23.6 °F 32.0 °F 100% 30.31 in 0.8 mi WSW 10.4 mph - 0.01 in Snow Light Snow
10:42 PM 32.0 °F 23.0 °F 32.0 °F 100% 30.31 in 0.5 mi WSW 11.5 mph - 0.04 in Fog , Snow Light Snow
10:53 PM 32.0 °F 23.0 °F 32.0 °F 100% 30.31 in 0.8 mi WSW 11.5 mph - 0.05 in Snow Light Snow
11:05 PM 32.0 °F 23.6 °F 32.0 °F 100% 30.32 in 3.0 mi West 10.4 mph - 0.00 in Snow Light Snow
11:21 PM 32.0 °F 23.0 °F 32.0 °F 100% 30.32 in 6.0 mi West 11.5 mph - 0.01 in   Overcast
11:53 PM 32.0 °F 20.1 °F 32.0 °F 100% 30.33 in 8.0 mi West 19.6 mph - 0.01 in   Overcast